Погода в Тобольске

Погода в Тобольске : погода сейчас, прогноз погоды и архив. Всё, что Вы хотите узнать о погоде в Тобольске!

Хотите узнать прогноз погоды в Тобольске? Тогда Вам сюда: Погода в Тобольске

Поиск расширенной информации на нашем сайте:

Полезная информация:

Другие новости

Новости СМИ2

Главная страница сайта

Новости сайта

03.07.2017

Напоминаем, что на нашем специализированном сайте Метеоцентр.Азия вы можете получить высокодетализированные автоматические прогнозы погоды по пунктам России, СНГ и мира в авиационном формате (включающие направление и скорость ветра, видимость, явления погоды, количество и форму облачности, нижнюю и верхнюю границу облачности).

Рекомендуем:

Погода в Тобольске - сегодня

Время (UTC), дата Ветер
(°,м/с) 
Видим.   Явления Облачность Т
(°С)
Тd
(°С)
f(%) Тe
(°С)
Pmin
(гПа)
dP
(гПа)
Po
(мм)
O2
(г/м3)
Тmin Tmax R s Состояние
почвы
21 18.05.19 120 (ЮВ) 10 км    10/10 600 м кучево-дожд. 
[Cb cap]
+3.9 -0.5 73 +5  998.7  -0.8  745  296           
00 19.05.19 150 (ЮВ) 20000 м  {ливн. осадки}  10/8 600 м кучево-дожд., верхняя 
[Cb cap|Ci fib]
+4.8 +1.2 77 +6  997.8  -0.9  744  294           
03 19.05.19 130 (ЮВ) 20000 м    9/9 600 м 
[Cu Sc]
+7.7 +3.6 75 +8  997.3  -0.4  744  291  +3.2    0.0    влажная 
06 19.05.19 310 (СЗ) 20000 м  в посл. час гроза  10/8 600 м кучево-дожд., средняя 
[Cb calv|Ac trans]
+9.3 +2.1 61 +9  997  -0.3  743  289           
09 19.05.19 360 (С) 20000 м  {ливн. осадки}  10/3 600 м кучево-дожд., средняя, верхняя 
[Cb cap|Ac trans|Ci sp]
+11.2 +1.7 52 +12  997.2  0.3  744  288           
12 19.05.19 150 (ЮВ) 20000 м  {ливн. осадки}  10/4 600 м кучево-дожд., средняя 
[Cb cap|Ac und]
+8.3 +4 74 +8  997.5  0.2  744  290           
15 19.05.19 010 (С) 10 км  слаб. ливневой дождь  10/10 600 м кучево-дожд. 
[Cb cap]
+6.9 +4.1 82 +7  997.4  -0.1  744  292    +11.4     
18 19.05.19 340 (С) 10 км  {ливн. осадки}  10/10 600 м 
[Sc]
+6.7 +4.2 84 +7  996.9  -0.5  743  292           
21 19.05.19 330 (СЗ) 10 км  в посл. час ливневой дождь  10/4 600 м средняя 
[Sc diur, vesp|Ac trans]
+6 +3.8 86 +6  997.4  0.4  744  293           
00 20.05.19 300 (СЗ) 20000 м  {ливн. осадки}  10/0 средняя, верхняя 
[Ac trans|Ci fib]
+4 +0.7 79 +4  998.6  1.2  744  295           
03 20.05.19 290 (З) 20000 м    3/0 верхняя 
[Ci fib]
+9.1 -0.3 52 +9  999.7  1.2  745  291  +4      влажная 
06 20.05.19 320 (СЗ) 4{11}  20000 м    10/8 600 м кучево-дожд., верхняя 
[Cb cap|Ci sp]
+9.8 -2.2 43 +9  1000.8  1.1  746  290           
09 20.05.19 250 (З) 10 км  слаб. ливневой дождь  10/8 600 м кучево-дожд., верхняя 
[Cb cap|Ci sp]
+9.9 -1.5 45 +9  1001.3  0.5  747  290           
12 20.05.19 230 (ЮЗ) 4{10}  10 км  слаб. ливневой дождь  10/10 600 м кучево-дожд. 
[Cb cap]
+6.2 +2.1 75 +5  1002.7  1.4  748  294           
15 20.05.19 310 (СЗ) 20000 м  {ливн. осадки}  8/3 600 м верхняя 
[Sc|Ci sp]
+7.7 +0.3 59 +9  1002.4  -0.3  747  293      0.7     
18 20.05.19 240 (ЮЗ) 10 км  {ливн. осадки}  10/3 600 м верхняя 
[Sc|Ci sp]
+3.8 +1.5 85 +5  1002.7  0.2  748  297           
21 20.05.19 260 (З) 10 км    10/10 600 м 
[Sc]
+4.5 +2.2 85 +5  1002.1  -0.6  747  296           
00 21.05.19 320 (СЗ) 20000 м    10/10 600 м 
[Sc]
+4.6 +1.6 81 +4  1002.1  747  296           
03 21.05.19 300 (СЗ) 10 км  слаб. ливневой дождь  10/10 600 м кучево-дожд. 
[Cb cap]
+5.1 +2 80 +5  1003.4  1.3  748  296  +3.1    0.0    влажная 
06 21.05.19 300 (СЗ) 10 км  слаб. ливневой дождь  10/6 600 м кучево-дожд., средняя 
[Cb cap|Ac und]
+6.2 +1.9 74 +5  1004.3  0.9  749  295           
09 21.05.19 350 (С) 20000 м  {ливн. осадки}  10/8 600 м кучево-дожд., средняя 
[Cb cap|Ac und]
+8 +1.2 62 +8  1005.4  1.1  750  293           
12 21.05.19 340 (С) 20000 м  {ливн. осадки}  10/4 600 м средняя, верхняя 
[Sc|Ac und|Ci sp]
+8.3 +0.3 57 +7  1006.5  1.2  750  293           
15 21.05.19 330 (СЗ) 20000 м    8/4 600 м средняя, верхняя 
[Sc|Ac trans|Ci sp]
+6.5 +0.4 65 +6  1007.9  1.3  751  296    +10.1  0.0     
18 21.05.19 330 (СЗ) 10 км    10/10 600 м 
[Sc]
+5.5 +0.6 71 +4  1008.9  752  297  +5.5         
21 21.05.19 320 (СЗ) 10 км    8/8 600 м 
[Sc]
+4.5 +0.8 77 +4  1009.3  0.3  752  298           
Время (UTC), дата Ветер
(°,м/с) 
Видим.   Явления Облачность Т
(°С)
Тd
(°С)
f(%) Тe
(°С)
Pmin
(гПа)
dP
(гПа)
Po
(мм)
O2
(г/м3)
Тmin Tmax R s Состояние
почвы

Для получения пояснительной информации подведите курсор к названию столбца.

ПОГОДА в Тобольске - архив

Всё, что Вы хотите узнать о погоде в Тобольске - удобно и подробно!

Выберите нужную дату (начиная с 1 января 2018* года) и нажмите кнопку "Найти".
Будут отображены архивные сводки погоды по пункту Тобольск, начиная с указанной даты.


Отображать данные в формате CSV (для использования в таблицах Excel)


Внимание! Наш архив погоды предназначен исключительно для личного некоммерческого использования в познавательных целях. Если Вам необходимы официальные справки о состоянии погоды (для производственных, юридических, коммерческих и т.п. целей), обращайтесь в органы Росгидромета.

*Примечание: данная дата относится к архиву по метеостанциям СССР (Россия, СНГ, Балтия).
Архив по метеостанциям Зарубежной Европы и Азии (кроме Китая) хранится 10 дней, по другим регионам земного шара (Китай, Африка, Америка, Австралия, Океания) - 1 день.

Тобольск - район местоположения метеостанции


Название, широта, долгота, высота метеостанции:
Тобольск 58.2°ш. 68.2°д. 50 м над ур. моря [Российская Федерация]

Дополнительная информация

В oтличие oт бoльшинства пoгoдных сайтoв мы публикуем пoдрoбную метеoинфoрмацию в детальнoм прoфессиoнальнoм фoрмате.

Характеристики температуры и влажнoсти вoздуха измеряются на высoте 2 м в тени вдали oт зданий и деревьев.
Скoрoсть ветра измеряется на высoте 10 м (на урoвне рoста челoвека скoрoсть ветра ниже в 1.5-2 раза). Если метеoстанция нахoдится в гoрoде или в лесу, тo скoрoсть ветра занижена на 2-4 м/с пo сравнению с oткрытым местoм. Скoрoсть ветра над акватoриями крупных рек и oзёр, а также на вершинах хoлмoв на 2-5 м/с выше, чем в oбычных услoвиях.
Атмoсфернoе давление в разных тoчках местнoсти мoжет значительнo oтличаться oт давления на метеoстанции, в зависимoсти oт услoвий рельефа (при пoдъёме на 10 м давление пoнижается примернo на 1 мм рт.ст.).